Location: Broek
(53.2737°N, 5.9967°E)
Time: 21:58:14
(UTC+00:00)

CARTOSAT-1 - Pass Details

Date: 10 October 2024
Orbit: 602 x 604 km, 97.6° (Epoch: 09 November)

Event Time Altitude Azimuth Distance (km) Brightness Sun altitude
Exits shadow 19:05:27 42° 160° (SSE) 874 4.0 -20.8°
Maximum altitude 19:06:52 86° 75° (ENE) 618 3.4 -21.0°
Drops below altitude 10° 19:11:10 10° 347° (NNW) 1,973 6.5 -21.6°
Sets 19:13:21 0° 347° (NNW) 2,881 7.4 -21.9°
